Skip Navigation Links
NOAA logo - Click to go to the NOAA homepage
NOAA's National Weather Service
Alaska Aviation Weather Unit
  NWS logo - Click to go to the NWS homepage
Left Navbar Graphic     21 AKDT = 05 GMT

   
NOAA is celebrating 200 years of science, service, and stewardship. Visit the NOAA 200th celebration Web site to learn more.
USA.gov is the U.S. Government's official Web portal to all Federal, state and local government Web resources and services.
Facebook
NWS on Facebook

Important Change Regarding the AAWU Web Presence

 

Over the last several months, the AAWU has been working to navigate its webpages to a nationally supported server. Security, as well as other needs, have necessitated the change.  In the process, we have made an effort to enhance the functionality of our website, as well as some of our products. As of June 27, 2017, aawu.arh.noaa.gov will be discontinued. The new AAWU web address is weather.gov/aawu. It is now live and will run in-parallel with the old site until it is discontinued. Please send any feedback or questions regarding the new webpages to nws.ar.aawu.webauthors@noaa.gov.  Thank you for your patience during this time of transition.
AAWU Home :: Display TAF Add Bookmark
TAF PADQ 252323Z 2600/2624 08007KT P6SM SKC
     FM260400 21008KT P6SM SCT080 BKN120
     FM260800 18005KT P6SM -RA OVC045
     FM261600 11006KT P6SM -RA SCT015 BKN025=
METAR PADQ 252353Z 05006KT 10SM CLR 17/09 A3000=

METAR PADQ 260053Z 28009KT 10SM CLR 18/08 A2999=

METAR PADQ 260153Z VRB04KT 10SM CLR 17/09 A2999=

METAR PADQ 260253Z 05008KT 020V080 10SM FEW050 16/08 A2998=

METAR PADQ 260353Z 31008KT 10SM SCT038 OVC049 15/08 A2998=

PADQ 260438Z 22010KT 10SM SCT042 SCT095 14/07 A2998=

PADQ 260438Z 22010KT 10SM SCT042 SCT095 14/07 A2998 RMK AO2 WSHFT
     0418 T01390067=

METAR PADQ 260453Z 22013KT 10SM FEW047 BKN095 14/07 A2998=


NOAA's National Weather Service
Alaska Aviation Weather Unit
6930 Sand Lake Road
Anchorage, AK 99502-1845
Disclaimer
Credits
Glossary
Privacy Policy
About Us
Career Opportunities
Contact AAWU Internet Services Site last modified: April, 17th 2012